Wind_Speed
15 15 15 14 13 13 12 12 11 11 11 11 11 11 10 10 11 11 11 11 11 10 10 10 10 9 9 9 9 9 9 9 9 9 9 9 9 9 9 9 9 8 8
17 16 16 16 15 15 14 13 13 12 12 12 12 12 12 12 12 12 12 13 13 13 12 12 12 12 12 11 11 11 11 11 11 11 10 10 10 10 10 10 10 10 10
18 17 17 17 17 16 16 16 15 15 14 14 14 14 14 14 14 14 14 14 14 14 14 14 14 14 13 13 13 13 13 13 12 12 12 12 12 12 12 12 12 12 11
19 19 19 19 19 18 18 18 17 17 17 16 16 16 16 16 16 15 15 15 15 16 16 16 16 16 15 15 15 15 15 14 14 14 14 14 14 14 14 14 14 14 14
22 22 21 21 21 21 20 20 19 19 19 19 18 18 18 18 18 18 18 18 18 18 18 18 18 18 18 17 17 17 17 16 16 16 16 16 16 16 16 16 16 16 16
23 23 23 23 23 23 23 23 22 22 21 21 20 20 20 20 20 20 20 20 20 20 20 20 20 19 19 19 20 19 19 19 19 18 18 18 18 18 18 18 18 18 18
26 25 25 25 25 25 25 25 25 24 24 24 23 23 23 23 22 22 22 22 22 22 22 22 22 22 21 21 21 22 22 22 21 21 20 20 20 20 20 20 20 20 19
28 28 28 27 27 27 27 27 26 26 26 26 25 25 25 25 25 25 25 25 25 25 24 24 24 24 24 24 24 24 24 24 24 23 23 22 22 22 22 22 22 22 21
29 29 29 29 29 28 28 28 28 27 27 27 27 26 26 27 27 27 27 27 27 27 27 27 26 26 26 26 26 26 26 25 25 26 26 25 25 25 24 24 24 23 23
29 29 29 29 29 29 29 29 29 29 29 29 29 28 28 29 29 29 30 29 30 30 30 30 29 29 29 29 28 28 28 28 28 28 28 28 27 27 27 26 26 26 25
28 28 28 29 29 29 30 30 30 31 31 31 31 31 31 31 32 32 32 32 32 33 33 33 32 32 32 32 32 31 31 30 30 30 30 30 29 29 29 29 28 27 27
29 28 29 29 29 30 31 31 32 33 33 33 34 34 34 34 35 35 36 35 35 35 35 35 35 35 35 35 35 34 33 33 33 32 32 32 32 31 31 30 30 29 29
30 30 30 30 30 31 32 32 33 34 35 35 36 36 37 37 38 38 38 38 38 38 38 38 38 38 38 37 38 37 37 36 36 35 35 34 34 34 33 32 32 31 30
31 31 31 32 32 33 33 33 34 35 36 37 38 39 39 40 40 40 40 41 40 40 40 40 40 40 40 40 40 40 40 39 39 38 37 37 36 36 35 35 35 34 33
33 33 33 33 33 34 34 34 35 37 38 39 40 40 41 41 42 42 43 43 43 43 42 42 42 42 42 42 42 42 42 41 41 41 40 39 38 38 37 37 37 36 35
34 34 34 35 35 35 35 36 36 37 38 39 40 41 41 42 42 43 44 44 45 45 45 45 45 45 45 45 45 44 44 43 43 43 43 42 41 40 39 40 39 38 37
35 35 36 36 36 37 37 37 37 38 39 40 41 41 42 43 44 44 45 45 46 47 47 47 47 46 46 46 47 47 46 45 45 44 44 44 44 43 42 41 41 40 39
36 36 36 36 37 37 38 38 39 39 40 41 42 43 44 44 45 45 46 46 47 48 48 48 48 48 47 47 47 48 47 47 46 46 45 45 45 45 44 42 41 42 42
36 36 36 36 36 37 38 38 39 40 41 42 43 43 44 44 44 45 46 46 47 48 48 48 48 48 48 48 47 48 48 48 48 47 47 47 46 46 45 44 43 43 43
35 35 35 36 36 37 37 38 39 39 40 40 40 41 42 43 44 45 45 46 47 48 47 47 48 48 48 48 48 47 47 47 47 47 48 48 48 47 47 47 46 45 44
35 35 35 36 36 37 37 38 38 38 38 39 40 41 42 43 44 44 44 44 45 46 46 46 47 48 48 48 48 49 48 48 48 48 49 50 49 50 49 48 48 47 45
36 36 36 36 37 38 38 38 38 38 38 39 40 41 41 41 42 43 43 43 44 44 44 45 46 47 47 47 48 48 49 49 49 49 50 49 49 50 49 48 49 49 48
36 36 36 37 37 37 37 38 38 38 39 39 39 40 40 40 41 42 43 43 43 43 44 44 46 47 47 46 47 48 49 49 48 48 48 48 49 49 49 50 50 51 51
36 36 36 36 36 37 36 36 37 38 38 38 39 39 39 40 40 41 42 43 43 43 43 43 44 44 45 45 46 48 49 50 50 47 48 49 49 50 50 51 51 51 52
36 36 36 36 36 35 35 36 36 37 37 37 37 38 38 39 39 40 40 41 42 42 42 42 43 43 44 44 44 46 46 47 49 49 47 48 48 48 50 51 51 51 52
35 35 35 35 34 35 35 36 36 35 35 36 36 36 36 37 37 38 38 38 39 39 40 41 41 41 42 44 44 45 45 45 46 46 45 45 46 46 48 50 51 51 51
Wind_Direction
249 251 253 254 255 257 258 260 261 262 263 265 269 272 273 275 276 278 279 280 281 281 281 280 280 282 282 281 280 278 277 279 283 285 286 289 291 291 293 295 296 299 302
251 252 254 255 255 257 259 260 262 264 265 266 268 270 272 274 275 276 277 277 277 278 277 277 276 277 277 278 277 277 276 275 276 279 281 282 284 285 286 287 289 292 295
251 251 252 253 255 257 259 261 263 265 266 267 269 270 271 272 274 275 276 276 275 275 275 274 274 275 275 274 274 274 275 275 275 274 276 278 279 280 281 282 283 286 288
250 251 252 254 255 258 261 263 264 266 267 268 269 270 270 271 273 274 276 277 276 276 277 276 274 274 275 274 273 273 273 274 274 273 273 274 275 276 278 279 279 281 283
251 252 254 256 258 259 261 263 265 266 267 269 270 271 271 271 272 273 274 275 275 276 277 277 276 274 273 273 273 273 272 273 272 272 272 272 272 273 275 276 277 278 279
252 253 254 256 258 260 262 264 265 266 267 269 269 270 271 272 273 274 275 275 275 276 277 277 277 275 274 273 272 272 271 271 271 271 272 272 271 271 272 273 274 275 276
253 254 255 256 258 261 262 264 266 267 268 268 269 269 270 272 273 274 275 276 276 276 276 277 276 275 274 274 273 272 271 271 271 271 271 271 270 270 270 271 271 272 273
254 255 256 258 260 261 262 264 265 267 268 269 270 270 271 271 272 272 273 274 274 275 275 276 276 275 274 274 273 272 271 271 270 271 271 271 270 269 269 269 269 270 270
255 257 258 259 260 262 263 264 265 266 267 268 269 270 271 272 272 272 272 272 272 273 273 274 274 275 274 274 273 272 271 271 271 271 272 271 270 270 269 269 269 269 269
255 256 257 259 261 263 264 265 265 266 267 268 269 270 271 271 272 272 272 272 272 272 272 272 272 273 273 273 273 273 272 271 271 271 271 271 271 271 270 269 268 268 268
254 255 257 259 261 262 264 265 265 266 267 268 269 270 270 271 271 271 272 272 271 271 272 272 272 272 272 272 272 272 272 272 271 270 270 270 270 271 271 269 268 268 268
255 256 257 259 261 263 264 266 266 267 268 268 269 270 270 270 271 271 271 271 271 271 271 271 271 271 271 271 271 271 271 271 271 271 270 269 269 269 269 270 269 268 268
256 258 259 261 263 265 266 267 268 268 268 269 269 269 270 270 271 271 272 271 271 271 271 271 271 271 271 271 271 271 270 270 270 270 270 269 269 268 268 268 269 268 268
256 259 261 263 265 267 268 269 270 269 269 269 269 269 270 270 271 271 272 271 270 270 270 271 270 270 271 271 270 270 271 270 269 269 269 269 268 268 267 268 268 268 268
257 260 263 264 266 267 269 270 271 271 271 271 272 272 271 271 272 272 271 271 271 270 270 270 270 269 269 270 269 269 270 270 268 267 267 267 268 267 267 268 268 268 268
259 261 263 265 267 268 270 271 272 272 272 272 272 273 272 272 271 272 272 271 271 270 269 269 269 269 269 269 268 268 268 268 268 268 267 267 266 266 267 267 268 267 267
260 263 265 267 268 270 271 272 273 273 274 273 273 273 273 273 273 272 272 271 271 270 270 269 269 269 269 268 267 266 266 266 266 267 267 267 265 265 267 267 267 266 266
262 264 266 268 269 270 271 273 274 274 274 274 274 274 274 274 274 273 272 272 270 270 270 269 268 269 269 269 268 265 264 264 264 264 265 266 266 265 265 266 266 266 265
262 264 267 269 270 271 272 274 275 276 277 276 276 276 275 275 274 274 274 273 271 270 270 269 268 269 269 269 268 266 263 262 262 263 264 264 264 264 264 265 265 265 265
263 265 267 269 271 272 274 275 277 278 279 279 279 278 278 277 276 276 276 274 273 271 270 270 269 269 269 269 267 266 264 262 262 264 264 263 263 263 263 264 265 266 266
264 266 268 270 272 273 275 276 278 279 280 280 280 280 279 279 278 277 276 274 274 272 271 270 269 269 269 268 267 266 264 263 264 263 263 262 261 261 261 262 263 265 265
266 267 269 271 273 274 276 277 278 278 280 280 280 281 281 280 278 277 276 275 274 273 272 271 270 269 269 269 268 267 264 263 264 263 262 261 261 261 261 263 263 263 263
266 267 269 271 273 275 277 278 278 279 281 281 281 281 281 280 280 278 277 275 274 273 272 272 271 269 269 270 269 268 267 264 262 262 262 263 263 263 262 263 264 264 262
267 269 271 272 274 276 277 279 280 281 282 282 283 283 282 282 281 280 278 277 275 274 273 272 272 271 268 268 269 267 267 265 262 264 264 263 263 263 262 263 263 262 262
269 270 272 273 275 276 277 279 281 283 283 283 284 284 284 283 283 282 281 278 277 276 274 272 271 271 269 268 267 267 267 266 264 265 264 262 261 262 262 261 260 261 262
270 271 272 272 274 276 278 280 282 283 283 284 285 286 286 286 285 284 283 281 280 279 277 275 273 272 271 270 268 266 266 267 268 267 267 264 262 262 263 262 261 260 261
Height
5862 5863 5864 5864 5865 5866 5867 5868 5868 5869 5869 5870 5871 5871 5872 5872 5872 5873 5873 5874 5874 5874 5874 5874 5875 5875 5875 5875 5875 5875 5875 5875 5876 5876 5876 5876 5876 5876 5876 5875 5875 5875 5875
5859 5860 5861 5862 5863 5864 5865 5865 5866 5867 5867 5868 5868 5869 5869 5870 5870 5871 5871 5871 5872 5872 5872 5872 5873 5873 5873 5873 5873 5873 5873 5873 5874 5874 5874 5874 5874 5874 5874 5874 5874 5874 5873
5856 5857 5858 5859 5860 5861 5862 5863 5864 5864 5865 5865 5866 5866 5867 5867 5868 5868 5868 5869 5869 5869 5870 5870 5870 5870 5870 5870 5871 5871 5871 5871 5871 5871 5871 5872 5872 5872 5872 5872 5872 5872 5871
5853 5854 5855 5856 5857 5858 5859 5860 5861 5861 5862 5863 5863 5864 5864 5865 5865 5865 5866 5866 5866 5867 5867 5867 5867 5867 5868 5868 5868 5868 5868 5868 5868 5869 5869 5869 5869 5869 5869 5869 5869 5869 5869
5849 5850 5852 5853 5854 5855 5856 5857 5857 5858 5859 5859 5860 5861 5861 5861 5862 5862 5862 5863 5863 5863 5864 5864 5864 5864 5865 5865 5865 5865 5865 5865 5865 5865 5866 5866 5866 5866 5866 5866 5866 5866 5866
5845 5846 5848 5849 5850 5851 5852 5853 5853 5854 5855 5856 5856 5857 5857 5858 5858 5858 5859 5859 5859 5860 5860 5860 5860 5861 5861 5861 5861 5861 5861 5862 5862 5862 5862 5862 5862 5862 5863 5863 5863 5863 5863
5841 5842 5843 5844 5845 5846 5847 5848 5849 5850 5850 5851 5852 5853 5853 5854 5854 5854 5855 5855 5855 5855 5856 5856 5856 5857 5857 5857 5857 5857 5858 5858 5858 5858 5858 5858 5858 5858 5859 5859 5859 5859 5859
5836 5837 5838 5839 5841 5842 5843 5843 5844 5845 5846 5846 5847 5848 5848 5849 5849 5850 5850 5850 5851 5851 5851 5851 5852 5852 5852 5853 5853 5853 5853 5853 5853 5854 5854 5854 5854 5854 5854 5854 5854 5855 5855
5831 5832 5833 5835 5836 5837 5838 5838 5839 5840 5841 5841 5842 5843 5843 5844 5844 5844 5845 5845 5845 5845 5846 5846 5847 5847 5847 5847 5848 5848 5848 5848 5849 5849 5849 5849 5849 5849 5849 5850 5850 5850 5850
5825 5827 5828 5829 5830 5831 5832 5833 5834 5834 5835 5836 5836 5837 5837 5838 5838 5838 5839 5839 5839 5840 5840 5840 5841 5841 5841 5842 5842 5842 5843 5843 5843 5843 5843 5844 5844 5844 5844 5844 5844 5845 5845
5820 5821 5823 5824 5825 5826 5827 5827 5828 5828 5829 5829 5830 5831 5831 5832 5832 5832 5832 5833 5833 5833 5833 5834 5834 5835 5835 5835 5836 5836 5836 5837 5837 5837 5838 5838 5838 5838 5838 5838 5839 5839 5839
5814 5816 5817 5818 5819 5820 5821 5821 5821 5822 5822 5823 5823 5824 5824 5824 5825 5825 5825 5825 5825 5826 5826 5826 5827 5827 5828 5828 5829 5829 5830 5830 5830 5831 5831 5831 5831 5831 5832 5832 5833 5833 5833
5808 5810 5811 5812 5813 5814 5814 5814 5814 5815 5815 5815 5816 5816 5816 5816 5817 5817 5817 5817 5817 5818 5818 5818 5819 5819 5820 5820 5821 5821 5822 5822 5823 5823 5824 5824 5824 5825 5825 5825 5826 5826 5826
5803 5804 5805 5806 5807 5807 5807 5807 5807 5807 5807 5807 5807 5808 5808 5808 5808 5808 5808 5808 5809 5809 5809 5810 5810 5811 5811 5812 5812 5813 5813 5814 5815 5815 5816 5816 5817 5817 5818 5818 5819 5819 5819
5796 5797 5799 5799 5800 5800 5800 5800 5800 5799 5799 5799 5799 5799 5799 5799 5799 5799 5799 5799 5799 5800 5800 5801 5801 5801 5802 5802 5803 5804 5804 5805 5806 5806 5807 5808 5809 5809 5810 5810 5811 5811 5812
5790 5791 5791 5792 5792 5793 5793 5792 5792 5791 5791 5790 5790 5789 5789 5789 5789 5789 5789 5789 5789 5789 5790 5790 5791 5791 5792 5792 5793 5794 5794 5795 5796 5797 5798 5799 5800 5800 5801 5802 5802 5803 5804
5783 5784 5784 5785 5785 5785 5785 5784 5784 5783 5782 5781 5781 5780 5780 5780 5779 5779 5779 5779 5778 5778 5779 5779 5780 5780 5781 5781 5782 5783 5784 5785 5785 5786 5787 5788 5789 5791 5791 5792 5793 5794 5795
5776 5776 5777 5777 5777 5777 5777 5776 5775 5774 5773 5773 5772 5771 5770 5769 5769 5769 5768 5768 5767 5767 5767 5768 5769 5769 5770 5770 5770 5771 5772 5773 5774 5776 5777 5777 5779 5780 5781 5782 5783 5784 5785
5768 5769 5769 5769 5769 5769 5769 5768 5767 5766 5764 5763 5762 5761 5760 5759 5758 5758 5757 5757 5756 5756 5756 5756 5756 5757 5758 5758 5758 5758 5760 5761 5763 5764 5766 5767 5768 5769 5770 5771 5772 5773 5775
5761 5762 5762 5762 5762 5761 5761 5760 5759 5757 5756 5754 5752 5751 5750 5749 5748 5747 5746 5746 5745 5744 5744 5744 5745 5745 5745 5745 5745 5746 5748 5749 5751 5753 5754 5755 5756 5757 5759 5760 5761 5762 5764
5754 5754 5754 5754 5754 5753 5753 5752 5751 5749 5747 5745 5743 5742 5740 5738 5737 5736 5735 5734 5733 5733 5733 5733 5733 5733 5733 5733 5733 5735 5736 5738 5739 5741 5742 5743 5745 5746 5747 5748 5749 5751 5752
5746 5747 5747 5746 5746 5745 5744 5743 5742 5740 5739 5737 5735 5732 5730 5728 5726 5725 5724 5723 5722 5722 5721 5721 5721 5721 5721 5721 5721 5722 5724 5727 5728 5729 5730 5730 5732 5733 5735 5736 5738 5739 5740
5738 5739 5739 5738 5738 5737 5736 5735 5734 5732 5730 5728 5725 5723 5720 5718 5716 5714 5713 5712 5711 5711 5711 5710 5710 5710 5710 5709 5709 5710 5712 5714 5716 5718 5718 5718 5719 5721 5723 5724 5725 5727 5728
5731 5731 5731 5731 5730 5729 5728 5727 5725 5723 5721 5719 5716 5714 5711 5709 5706 5705 5703 5702 5701 5700 5700 5699 5699 5699 5699 5699 5698 5698 5699 5701 5703 5705 5706 5706 5707 5709 5710 5711 5712 5714 5715
5723 5723 5723 5722 5722 5721 5720 5719 5717 5715 5713 5710 5708 5705 5702 5699 5697 5695 5693 5691 5690 5689 5689 5688 5688 5688 5688 5688 5688 5688 5688 5689 5690 5692 5694 5695 5696 5696 5697 5698 5699 5700 5702
5715 5715 5715 5714 5714 5713 5712 5710 5709 5707 5705 5702 5699 5696 5694 5691 5688 5686 5684 5682 5681 5680 5679 5678 5678 5677 5677 5677 5678 5678 5678 5678 5679 5679 5681 5683 5684 5685 5685 5685 5686 5687 5688